This demonstration page uses our WeatherBlox Daily Observations layout. Learn more.

Left ArrowRight Arrow

41.55636, -103.73856

Hourly Observations for November 15, 2019

Temp ( °F °C ) Dew Point ( °F °C ) Humidity (%) Winds ( mph kmh ) Pressure ( in mb ) Visibility ( mi km ) Precip ( " mm )
12:58 am 00:58 Mostly Cloudy 41 4.8 29 -1.7 63 63 SSW 15 24 30.29 1026 10 16.0934 N/A
1:58 am 01:58 Mostly Clear 41 5.2 30 -1.2 64 64 SSW 20 31 30.28 1025 10 16.0934 N/A
2:58 am 02:58 Clear 42 5.7 29 -1.4 61 61 SSW 18 30 30.24 1024 10 16.0934 N/A
3:58 am 03:58 Clear 41 5.1 29 -1.6 62 62 SSW 17 28 30.23 1024 10 16.0934 N/A
4:58 am 04:58 Clear 41 4.9 29 -1.6 63 63 SSW 17 28 30.2 1023 10 16.0934 N/A
5:58 am 05:58 Clear 39 4.1 29 -1.9 65 65 SSW 20 31 30.17 1022 10 16.0934 N/A
6:58 am 06:58 Clear 38 3.5 27 -2.8 64 64 SW 13 20 30.16 1021 10 16.0934 N/A
7:58 am 07:58 Clear 37 2.8 26 -3.1 65 65 WSW 8 13 30.15 1021 10 16.0934 N/A
8:58 am 08:58 Clear 38 3.3 26 -3.5 61 61 WSW 12 19 30.14 1021 10 16.0934 N/A
9:58 am 09:58 Clear 37 2.7 24 -4.3 60 60 SW 5 7 30.14 1021 10 16.0934 N/A
10:58 am 10:58 Clear 36 2 24 -4.2 64 64 SSW 9 15 30.15 1021 10 16.0934 N/A
11:58 am 11:58 Clear 35 1.9 24 -4.3 64 64 SW 9 15 30.18 1022 10 16.0934 N/A
1:58 pm 13:58 Sunny 39 3.7 23 -5.1 53 53 SSW 8 13 30.15 1021 10 16.0934 N/A
2:58 pm 14:58 undefined N/A N/A N/A SW 5 7 N/A N/A N/A
3:58 pm 15:58 Sunny 49 9.2 23 -5 37 37 W 3 6 30.11 1020 10 16.0934 N/A
4:58 pm 16:58 Sunny 50 10 27 -2.9 41 41 N 3 6 30.11 1020 10 16.0934 N/A
5:58 pm 17:58 Sunny 56 13.5 25 -3.8 30 30 N N/A 30.08 1019 10 16.0934 N/A
6:58 pm 18:58 Sunny 64 17.9 24 -4.2 22 22 NW 12 19 30.03 1017 10 16.0934 N/A
7:58 pm 19:58 Sunny 66 18.7 25 -3.8 22 22 NW 12 19 30.01 1016 10 16.0934 N/A
8:58 pm 20:58 Sunny 64 17.5 24 -4.7 22 22 WNW 13 20 30 1016 10 16.0934 N/A
9:58 pm 21:58 Sunny 66 18.7 24 -4.4 21 21 N 6 9 29.99 1016 10 16.0934 N/A
10:58 pm 22:58 Sunny 61 16.2 25 -3.7 25 25 ENE 7 11 30.02 1017 10 16.0934 N/A
11:58 pm 23:58 Mostly Cloudy 58 14.3 25 -3.9 28 28 S 3 6 30.03 1017 10 16.0934 N/A

Powered by AerisWeather